When you browse on this site, cookies collect data to enhance your experience and personalize the content and advertising you see.
Visit our Privacy Policy to learn more. By continuing to use the site, you agree to this use of cookies and data.
  • In Sweden
  • List of Countries
  • For 7 days
  • Water Temperature
  • Satellite Maps
  • Weather Map
  • Weather Widgets
  • user-avatar
    Login

    Hourly Weather Siodlowo

    Today, 21 March, Thursday

    Time Temperature Precipitation Wind Pressure Humidity
    00:00 +5°C° 0 mm 4 mps 764 mmHg 70%
    01:00 +6°C° 0 mm 4 mps 764 mmHg 76%
    02:00 +7°C° 0 mm 3 mps 764 mmHg 81%
    03:00 +5°C° 0 mm 3 mps 764 mmHg 85%
    04:00 +5°C° 0 mm 3 mps 764 mmHg 90%
    05:00 +5°C° 0 mm 3 mps 764 mmHg 92%
    06:00 +5°C° 0 mm 3 mps 764 mmHg 93%
    07:00 +5°C° 0 mm 3 mps 764 mmHg 95%
    08:00 +7°C° 0 mm 3 mps 764 mmHg 91%
    09:00 +7°C° 0 mm 4 mps 764 mmHg 87%
    10:00 +8°C° 0 mm 4 mps 764 mmHg 82%
    11:00 +8°C° 0 mm 4 mps 764 mmHg 80%
    12:00 +10°C° 0 mm 4 mps 764 mmHg 78%
    13:00 +9°C° 0 mm 5 mps 764 mmHg 76%
    14:00 +10°C° 0 mm 5 mps 764 mmHg 76%
    15:00 +10°C° 0 mm 5 mps 764 mmHg 76%
    16:00 +10°C° 0 mm 5 mps 763 mmHg 75%
    17:00 +11°C° 0 mm 4 mps 763 mmHg 79%
    18:00 +10°C° 0 mm 3 mps 763 mmHg 83%
    19:00 +9°C° 0 mm 3 mps 763 mmHg 86%
    20:00 +9°C° 0 mm 3 mps 763 mmHg 88%
    21:00 +9°C° 0 mm 3 mps 763 mmHg 89%
    22:00 +9°C° 0 mm 3 mps 763 mmHg 90%
    23:00 +8°C° 0 mm 3 mps 764 mmHg 92%

    Tomorrow, 22 March, Friday

    Time Temperature Precipitation Wind Pressure Humidity
    00:00 +8°C° 0 mm 3 mps 764 mmHg 93%
    01:00 +8°C° 0 mm 3 mps 764 mmHg 95%
    02:00 +7°C° 0 mm 3 mps 764 mmHg 96%
    03:00 +7°C° 0 mm 3 mps 764 mmHg 96%
    04:00 +7°C° 0 mm 3 mps 764 mmHg 97%
    05:00 +7°C° 0 mm 2 mps 764 mmHg 97%
    06:00 +7°C° 0 mm 2 mps 764 mmHg 96%
    07:00 +8°C° 0 mm 1 mps 764 mmHg 96%
    08:00 +9°C° 0 mm 1 mps 765 mmHg 91%
    09:00 +9°C° 0 mm 2 mps 765 mmHg 87%
    10:00 +10°C° 0 mm 2 mps 765 mmHg 82%
    11:00 +11°C° 0 mm 1 mps 765 mmHg 79%
    12:00 +12°C° 0 mm 1 mps 765 mmHg 76%
    13:00 +11°C° 0 mm 0 mps 765 mmHg 72%
    14:00 +12°C° 0 mm 0 mps 764 mmHg 70%
    15:00 +13°C° 0 mm 1 mps 764 mmHg 68%
    16:00 +13°C° 0 mm 1 mps 764 mmHg 65%
    17:00 +12°C° 0 mm 1 mps 763 mmHg 71%
    18:00 +11°C° 0 mm 1 mps 763 mmHg 77%
    19:00 +10°C° 0 mm 1 mps 763 mmHg 83%
    20:00 +8°C° 0 mm 2 mps 763 mmHg 85%
    21:00 +8°C° 0 mm 2 mps 763 mmHg 87%
    22:00 +7°C° 0 mm 2 mps 763 mmHg 89%
    23:00 +7°C° 0 mm 2 mps 763 mmHg 90%

    Day after tomorrow, 23 March, Saturday

    Time Temperature Precipitation Wind Pressure Humidity
    00:00 +7°C° 0 mm 2 mps 762 mmHg 91%
    01:00 +7°C° 0 mm 2 mps 762 mmHg 92%
    02:00 +7°C° 0 mm 2 mps 762 mmHg 93%
    03:00 +6°C° 0 mm 2 mps 761 mmHg 94%
    04:00 +6°C° 0 mm 2 mps 761 mmHg 94%
    05:00 +6°C° 0 mm 2 mps 761 mmHg 94%
    06:00 +7°C° 0 mm 2 mps 760 mmHg 94%
    07:00 +7°C° 0 mm 2 mps 760 mmHg 94%
    08:00 +9°C° 0 mm 2 mps 760 mmHg 86%
    09:00 +11°C° 0 mm 3 mps 760 mmHg 79%
    10:00 +13°C° 0 mm 3 mps 760 mmHg 71%
    11:00 +16°C° 0 mm 3 mps 760 mmHg 65%
    12:00 +17°C° 0 mm 3 mps 759 mmHg 60%
    13:00 +19°C° 0 mm 3 mps 759 mmHg 54%
    14:00 +19°C° 0 mm 3 mps 759 mmHg 54%
    15:00 +19°C° 0 mm 3 mps 758 mmHg 54%
    16:00 +19°C° 0 mm 3 mps 758 mmHg 54%
    17:00 +17°C° 0.1 mm 4 mps 758 mmHg 61%
    18:00 +14°C° 0.1 mm 5 mps 759 mmHg 68%
    19:00 +13°C° 0.1 mm 5 mps 759 mmHg 75%
    20:00 +12°C° 0 mm 5 mps 759 mmHg 77%
    21:00 +9°C° 0 mm 5 mps 760 mmHg 79%
    22:00 +8°C° 0 mm 5 mps 760 mmHg 81%
    23:00 +7°C° 0 mm 5 mps 761 mmHg 75%

    24 March, Sunday

    Time Temperature Precipitation Wind Pressure Humidity
    00:00 +6°C° 0 mm 4 mps 761 mmHg 69%
    01:00 +5°C° 0 mm 4 mps 761 mmHg 64%
    02:00 +5°C° 0 mm 4 mps 761 mmHg 65%
    03:00 +4°C° 0 mm 3 mps 761 mmHg 66%
    04:00 +3°C° 0 mm 3 mps 761 mmHg 67%
    05:00 +3°C° 0 mm 3 mps 761 mmHg 67%
    06:00 +3°C° 0 mm 3 mps 762 mmHg 68%
    07:00 +3°C° 0 mm 3 mps 762 mmHg 69%
    08:00 +4°C° 0 mm 3 mps 762 mmHg 64%
    09:00 +5°C° 0 mm 3 mps 762 mmHg 59%
    10:00 +7°C° 0 mm 2 mps 762 mmHg 54%
    11:00 +8°C° 0 mm 2 mps 761 mmHg 51%
    12:00 +9°C° 0 mm 2 mps 761 mmHg 47%
    13:00 +9°C° 0 mm 2 mps 760 mmHg 43%
    14:00 +11°C° 0 mm 1 mps 759 mmHg 42%
    15:00 +11°C° 0 mm 1 mps 759 mmHg 41%
    16:00 +11°C° 0 mm 1 mps 758 mmHg 40%
    17:00 +10°C° 0 mm 1 mps 758 mmHg 43%
    18:00 +10°C° 0 mm 1 mps 758 mmHg 46%
    19:00 +9°C° 0 mm 1 mps 757 mmHg 49%
    20:00 +9°C° 0 mm 1 mps 757 mmHg 51%
    21:00 +8°C° 0 mm 1 mps 757 mmHg 52%
    22:00 +8°C° 0 mm 1 mps 757 mmHg 53%
    23:00 +7°C° 0 mm 1 mps 756 mmHg 56%

    25 March, Monday

    Time Temperature Precipitation Wind Pressure Humidity
    00:00 +5°C° 0 mm 2 mps 756 mmHg 58%
    01:00 +5°C° 0 mm 2 mps 756 mmHg 61%
    02:00 +4°C° 0 mm 2 mps 755 mmHg 64%
    03:00 +3°C° 0 mm 2 mps 755 mmHg 67%
    04:00 +1°C° 0 mm 3 mps 755 mmHg 70%
    05:00 +1°C° 0 mm 3 mps 755 mmHg 71%
    06:00 +2°C° 0 mm 3 mps 754 mmHg 71%
    07:00 +1°C° 0 mm 4 mps 754 mmHg 71%
    08:00 +2°C° 0 mm 5 mps 754 mmHg 64%
    09:00 +4°C° 0 mm 6 mps 753 mmHg 58%
    10:00 +5°C° 0 mm 7 mps 753 mmHg 52%
    11:00 +5°C° 0.2 mm 9 mps 752 mmHg 54%
    12:00 +6°C° 0.2 mm 10 mps 751 mmHg 56%
    13:00 +6°C° 0.2 mm 11 mps 750 mmHg 59%
    14:00 +5°C° 0.4 mm 10 mps 750 mmHg 56%
    15:00 +5°C° 0.4 mm 10 mps 750 mmHg 52%
    16:00 +5°C° 0.4 mm 10 mps 750 mmHg 49%
    17:00 +3°C° 0 mm 9 mps 750 mmHg 53%
    18:00 +2°C° 0 mm 8 mps 750 mmHg 57%
    19:00 +2°C° 0 mm 7 mps 750 mmHg 61%
    20:00 0°C° 0 mm 7 mps 749 mmHg 63%
    21:00 0°C° 0 mm 7 mps 749 mmHg 65%
    22:00 0°C° 0 mm 8 mps 749 mmHg 67%
    23:00 0°C° 0 mm 8 mps 748 mmHg 67%

    26 March, Tuesday

    Time Temperature Precipitation Wind Pressure Humidity
    00:00 -1°C° 0 mm 8 mps 748 mmHg 66%
    01:00 -1°C° 0 mm 8 mps 748 mmHg 65%
    02:00 -1°C° 0.2 mm 8 mps 748 mmHg 67%
    03:00 -1°C° 0.2 mm 8 mps 748 mmHg 68%
    04:00 -1°C° 0.2 mm 8 mps 748 mmHg 69%
    05:00 -1°C° 0 mm 8 mps 748 mmHg 67%
    06:00 -1°C° 0 mm 8 mps 749 mmHg 66%
    07:00 -1°C° 0 mm 8 mps 749 mmHg 65%
    08:00 0°C° 0.2 mm 9 mps 750 mmHg 63%
    09:00 +1°C° 0.2 mm 9 mps 750 mmHg 61%
    10:00 +2°C° 0.2 mm 9 mps 750 mmHg 58%
    11:00 +2°C° 0.2 mm 9 mps 751 mmHg 61%
    12:00 +2°C° 0.2 mm 10 mps 752 mmHg 64%
    13:00 +2°C° 0.2 mm 10 mps 752 mmHg 66%
    14:00 +2°C° 0.1 mm 9 mps 753 mmHg 64%
    15:00 +2°C° 0.1 mm 9 mps 754 mmHg 62%
    16:00 +3°C° 0.1 mm 9 mps 755 mmHg 60%
    17:00 +2°C° 0 mm 8 mps 755 mmHg 64%
    18:00 +2°C° 0 mm 7 mps 756 mmHg 68%
    19:00 +2°C° 0 mm 6 mps 757 mmHg 72%
    20:00 +1°C° 0 mm 5 mps 758 mmHg 76%
    21:00 0°C° 0 mm 5 mps 758 mmHg 81%
    22:00 -1°C° 0 mm 4 mps 759 mmHg 86%
    23:00 0°C° 0.1 mm 4 mps 759 mmHg 84%
    Show more